Volver al catálogo

COSMOS 1054

ActivoMilitarLEO
NORAD 11131·PAYLOAD·🇷🇺 Russia

Lanzado Dec 5, 1978 desde Plesetsk Cosmodrome

Loading…

Próximos Pases (próximas 24 horas)

TLE

ActualizadoSource: Space-Track

Época: Sep 14, 2026, 09:54 UTC

1 11131U 78109D   26257.41268721 -.00000026  00000-0 -63290-4 0  9999
2 11131  74.0148 223.5017 0028013 246.9895 284.7704 12.49314152178875

Sigue COSMOS 1054 en tiempo real con AllMySat

Download on the App Store